Location: C�an Torras
(41.5052°N, 1.9280°E)
Time: 21:57:40
(UTC+00:00)

COSMOS 2455 - Pass Details

Date: 20 January 2021
Orbit: 901 x 908 km, 67.1° (Epoch: 03 March)

Event Time Altitude Azimuth Distance (km) Brightness Sun altitude
Rises 17:38:34 0° 200° (SSW) 3,515 6.5 -8.6°
Reaches altitude 10° 17:41:04 10° 199° (SSW) 2,578 5.8 -9.1°
Maximum altitude 17:47:01 71° 116° (ESE) 956 2.9 -10.1°
Drops below altitude 10° 17:53:01 10° 33° (NNE) 2,598 4.8 -11.2°
Enters shadow 17:54:02 - 33° (NNE) 2,974 5.1 -11.4°
